Time,TemperatureF,DewpointF,PressureIn,WindDirection,WindDirectionDegrees,WindSpeedMPH,WindSpeedGustMPH,Humidity,HourlyPrecipIn,Conditions,Clouds,dailyrainin,SoftwareType,DateUTC
2013-04-03 00:00:00,65.9,59.2,30.05,ESE,115,0.0,0.0,79,0.00,,,0.00,VWS V14.01,2013-04-03 04:00:00,
2013-04-03 00:05:00,65.7,59.0,30.05,ESE,115,0.0,2.0,79,0.00,,,0.00,VWS V14.01,2013-04-03 04:05:00,
2013-04-03 00:10:00,65.6,59.3,30.05,ESE,115,5.0,5.0,80,0.00,,,0.00,VWS V14.01,2013-04-03 04:10:00,
2013-04-03 00:15:00,65.5,59.2,30.05,ESE,115,2.0,4.0,80,0.00,,,0.00,VWS V14.01,2013-04-03 04:15:00,
2013-04-03 00:20:00,65.6,59.3,30.05,ESE,115,0.0,5.0,80,0.00,,,0.00,VWS V14.01,2013-04-03 04:20:00,
2013-04-03 00:25:00,65.7,59.0,30.05,ESE,115,2.0,2.0,79,0.00,,,0.00,VWS V14.01,2013-04-03 04:25:00,
2013-04-03 00:30:00,65.7,59.0,30.05,ESE,115,2.0,2.0,79,0.00,,,0.00,VWS V14.01,2013-04-03 04:30:00,
2013-04-03 00:35:00,65.7,59.0,30.05,ESE,115,1.0,4.0,79,0.00,,,0.00,VWS V14.01,2013-04-03 04:35:00,
2013-04-03 00:40:00,65.6,58.9,30.05,ESE,115,0.0,4.0,79,0.00,,,0.00,VWS V14.01,2013-04-03 04:40:00,
2013-04-03 00:45:00,65.4,59.1,30.05,ESE,115,0.0,0.0,80,0.00,,,0.00,VWS V14.01,2013-04-03 04:45:00,
2013-04-03 00:50:00,65.2,58.9,30.05,ESE,115,2.0,2.0,80,0.00,,,0.00,VWS V14.01,2013-04-03 04:50:00,
2013-04-03 00:55:00,65.0,58.7,30.05,ESE,115,0.0,1.0,80,0.00,,,0.00,VWS V14.01,2013-04-03 04:55:00,
2013-04-03 01:00:00,64.9,58.9,30.05,ESE,115,0.0,4.0,81,0.00,,,0.00,VWS V14.01,2013-04-03 05:00:00,
2013-04-03 01:05:00,64.7,58.7,30.05,ESE,115,0.0,0.0,81,0.00,,,0.00,VWS V14.01,2013-04-03 05:05:00,
2013-04-03 01:10:00,64.7,58.7,30.05,ESE,115,0.0,0.0,81,0.00,,,0.00,VWS V14.01,2013-04-03 05:10:00,
2013-04-03 01:15:00,64.5,58.5,30.05,ESE,115,0.0,0.0,81,0.00,,,0.00,VWS V14.01,2013-04-03 05:15:00,
2013-04-03 01:20:00,63.9,58.3,30.05,ESE,115,0.0,0.0,82,0.00,,,0.00,VWS V14.01,2013-04-03 05:20:00,
2013-04-03 01:25:00,63.3,58.1,30.05,ESE,115,0.0,0.0,83,0.00,,,0.00,VWS V14.01,2013-04-03 05:25:00,
2013-04-03 01:30:00,63.0,58.1,30.05,ESE,115,0.0,0.0,84,0.00,,,0.00,VWS V14.01,2013-04-03 05:30:00,
2013-04-03 01:35:00,62.8,58.2,30.05,ESE,115,0.0,0.0,85,0.00,,,0.00,VWS V14.01,2013-04-03 05:35:00,
2013-04-03 01:40:00,62.7,58.5,30.05,ESE,115,0.0,0.0,86,0.00,,,0.00,VWS V14.01,2013-04-03 05:40:00,
2013-04-03 01:45:00,62.6,58.4,30.05,ESE,115,0.0,0.0,86,0.00,,,0.00,VWS V14.01,2013-04-03 05:45:00,
2013-04-03 01:50:00,62.7,58.8,30.04,ESE,115,2.0,2.0,87,0.00,,,0.00,VWS V14.01,2013-04-03 05:50:00,
2013-04-03 01:55:00,63.0,59.1,30.04,ESE,115,4.0,5.0,87,0.00,,,0.00,VWS V14.01,2013-04-03 05:55:00,
2013-04-03 02:00:00,63.5,59.2,30.03,ESE,115,0.0,5.0,86,0.00,,,0.00,VWS V14.01,2013-04-03 06:00:00,
2013-04-03 02:05:00,63.8,59.2,30.03,ESE,115,2.0,4.0,85,0.00,,,0.00,VWS V14.01,2013-04-03 06:05:00,
2013-04-03 02:10:00,64.0,59.4,30.03,ESE,115,0.0,4.0,85,0.00,,,0.00,VWS V14.01,2013-04-03 06:10:00,
2013-04-03 02:15:00,64.0,59.1,30.03,ESE,115,0.0,0.0,84,0.00,,,0.00,VWS V14.01,2013-04-03 06:15:00,
2013-04-03 02:20:00,64.0,59.1,30.02,ESE,115,0.0,1.0,84,0.00,,,0.00,VWS V14.01,2013-04-03 06:20:00,
2013-04-03 02:25:00,64.0,59.1,30.02,ESE,115,0.0,1.0,84,0.00,,,0.00,VWS V14.01,2013-04-03 06:25:00,
2013-04-03 02:30:00,64.0,59.1,30.02,ESE,115,0.0,2.0,84,0.00,,,0.00,VWS V14.01,2013-04-03 06:30:00,
2013-04-03 02:35:00,63.9,59.3,30.02,ESE,115,0.0,0.0,85,0.00,,,0.00,VWS V14.01,2013-04-03 06:35:00,
2013-04-03 02:40:00,63.7,59.1,30.02,ESE,115,0.0,0.0,85,0.00,,,0.00,VWS V14.01,2013-04-03 06:40:00,
2013-04-03 02:45:00,63.5,58.9,30.02,ESE,115,0.0,0.0,85,0.00,,,0.00,VWS V14.01,2013-04-03 06:45:00,
2013-04-03 02:50:00,63.3,59.0,30.01,ESE,115,1.0,5.0,86,0.00,,,0.00,VWS V14.01,2013-04-03 06:50:00,
2013-04-03 02:55:00,63.1,58.8,30.01,ESE,115,2.0,2.0,86,0.00,,,0.00,VWS V14.01,2013-04-03 06:55:00,
2013-04-03 03:00:00,63.0,59.1,30.01,ESE,115,0.0,2.0,87,0.00,,,0.00,VWS V14.01,2013-04-03 07:00:00,
2013-04-03 03:05:00,62.9,59.3,30.00,ESE,115,1.0,2.0,88,0.00,,,0.00,VWS V14.01,2013-04-03 07:05:00,
2013-04-03 03:10:00,62.9,59.3,30.00,ESE,115,4.0,5.0,88,0.00,,,0.00,VWS V14.01,2013-04-03 07:10:00,
2013-04-03 03:15:00,62.9,59.3,30.00,ESE,115,0.0,4.0,88,0.00,,,0.00,VWS V14.01,2013-04-03 07:15:00,
2013-04-03 03:20:00,63.0,59.7,30.00,ESE,115,0.0,5.0,89,0.00,,,0.00,VWS V14.01,2013-04-03 07:20:00,
2013-04-03 03:25:00,63.1,59.8,30.00,ESE,115,0.0,2.0,89,0.00,,,0.00,VWS V14.01,2013-04-03 07:25:00,
2013-04-03 03:30:00,63.1,59.8,30.00,ESE,115,1.0,2.0,89,0.00,,,0.00,VWS V14.01,2013-04-03 07:30:00,
2013-04-03 03:35:00,63.1,59.8,30.00,ESE,115,0.0,2.0,89,0.00,,,0.00,VWS V14.01,2013-04-03 07:35:00,
2013-04-03 03:40:00,63.0,59.7,30.00,ESE,115,0.0,2.0,89,0.00,,,0.00,VWS V14.01,2013-04-03 07:40:00,
2013-04-03 03:45:00,63.0,60.0,30.00,ESE,115,0.0,1.0,90,0.00,,,0.00,VWS V14.01,2013-04-03 07:45:00,
2013-04-03 03:50:00,63.2,60.2,30.00,ESE,115,4.0,4.0,90,0.00,,,0.00,VWS V14.01,2013-04-03 07:50:00,
2013-04-03 03:55:00,63.7,61.0,29.99,ESE,115,2.0,4.0,91,0.00,,,0.00,VWS V14.01,2013-04-03 07:55:00,
2013-04-03 04:00:00,64.0,61.0,29.99,ESE,115,0.0,5.0,90,0.00,,,0.00,VWS V14.01,2013-04-03 08:00:00,
2013-04-03 04:05:00,64.2,61.2,29.99,ESE,115,0.0,5.0,90,0.00,,,0.00,VWS V14.01,2013-04-03 08:05:00,
2013-04-03 04:10:00,64.4,61.4,29.98,ESE,115,0.0,6.0,90,0.00,,,0.00,VWS V14.01,2013-04-03 08:10:00,
2013-04-03 04:15:00,64.6,61.3,29.98,ESE,115,0.0,2.0,89,0.00,,,0.00,VWS V14.01,2013-04-03 08:15:00,
2013-04-03 04:20:00,64.7,61.4,29.98,ESE,115,4.0,5.0,89,0.00,,,0.00,VWS V14.01,2013-04-03 08:20:00,
2013-04-03 04:25:00,64.7,61.4,29.99,ESE,115,2.0,2.0,89,0.00,,,0.00,VWS V14.01,2013-04-03 08:25:00,
2013-04-03 04:30:00,64.5,61.2,29.98,ESE,115,0.0,4.0,89,0.00,,,0.00,VWS V14.01,2013-04-03 08:30:00,
2013-04-03 04:35:00,64.4,61.4,29.98,ESE,115,0.0,2.0,90,0.00,,,0.00,VWS V14.01,2013-04-03 08:35:00,
2013-04-03 04:40:00,64.4,61.4,29.98,ESE,115,1.0,5.0,90,0.00,,,0.00,VWS V14.01,2013-04-03 08:40:00,
2013-04-03 04:45:00,64.4,61.4,29.99,ESE,115,0.0,1.0,90,0.00,,,0.00,VWS V14.01,2013-04-03 08:45:00,
2013-04-03 04:50:00,64.3,61.3,29.99,ESE,115,4.0,8.0,90,0.00,,,0.00,VWS V14.01,2013-04-03 08:50:00,
2013-04-03 04:55:00,64.4,61.4,29.99,ESE,115,1.0,4.0,90,0.00,,,0.00,VWS V14.01,2013-04-03 08:55:00,
2013-04-03 05:00:00,64.4,61.4,29.99,ESE,115,4.0,6.0,90,0.00,,,0.00,VWS V14.01,2013-04-03 09:00:00,
2013-04-03 05:05:00,64.5,61.5,29.99,ESE,115,2.0,6.0,90,0.00,,,0.00,VWS V14.01,2013-04-03 09:05:00,
2013-04-03 05:10:00,64.5,61.5,29.98,ESE,115,4.0,6.0,90,0.00,,,0.00,VWS V14.01,2013-04-03 09:10:00,
2013-04-03 05:15:00,64.5,61.5,29.98,ESE,115,2.0,4.0,90,0.00,,,0.00,VWS V14.01,2013-04-03 09:15:00,
2013-04-03 05:20:00,64.5,61.5,29.99,ESE,115,5.0,6.0,90,0.00,,,0.00,VWS V14.01,2013-04-03 09:20:00,
2013-04-03 05:25:00,64.5,61.5,29.99,ESE,115,0.0,5.0,90,0.00,,,0.00,VWS V14.01,2013-04-03 09:25:00,
2013-04-03 05:30:00,64.6,61.6,29.99,ESE,115,4.0,6.0,90,0.00,,,0.00,VWS V14.01,2013-04-03 09:30:00,
2013-04-03 05:35:00,64.6,61.6,29.99,ESE,115,4.0,6.0,90,0.00,,,0.00,VWS V14.01,2013-04-03 09:35:00,
2013-04-03 05:40:00,64.5,61.5,29.99,ESE,115,6.0,7.0,90,0.00,,,0.00,VWS V14.01,2013-04-03 09:40:00,
2013-04-03 05:45:00,64.5,61.5,29.99,ESE,115,2.0,6.0,90,0.00,,,0.00,VWS V14.01,2013-04-03 09:45:00,
2013-04-03 05:50:00,64.5,61.8,29.99,ESE,118,6.0,7.0,91,0.00,,,0.00,VWS V14.01,2013-04-03 09:50:00,
2013-04-03 05:55:00,64.5,61.8,29.99,ESE,118,1.0,6.0,91,0.00,,,0.00,VWS V14.01,2013-04-03 09:55:00,
2013-04-03 06:00:00,64.5,61.8,29.99,ESE,118,1.0,6.0,91,0.00,,,0.00,VWS V14.01,2013-04-03 10:00:00,
2013-04-03 06:05:00,64.5,61.8,29.99,ESE,118,1.0,4.0,91,0.00,,,0.00,VWS V14.01,2013-04-03 10:05:00,
2013-04-03 06:10:00,64.4,61.7,29.99,ESE,118,4.0,5.0,91,0.00,,,0.00,VWS V14.01,2013-04-03 10:10:00,
2013-04-03 06:15:00,64.5,62.1,29.99,ESE,118,4.0,4.0,92,0.00,,,0.00,VWS V14.01,2013-04-03 10:15:00,
2013-04-03 06:20:00,64.5,61.8,29.99,ESE,118,0.0,5.0,91,0.00,,,0.00,VWS V14.01,2013-04-03 10:20:00,
2013-04-03 06:25:00,64.4,62.0,29.99,ESE,117,4.0,5.0,92,0.00,,,0.00,VWS V14.01,2013-04-03 10:25:00,
2013-04-03 06:30:00,64.4,62.0,29.99,SE,126,2.0,7.0,92,0.00,,,0.00,VWS V14.01,2013-04-03 10:30:00,
2013-04-03 06:35:00,64.4,62.0,29.99,ESE,122,1.0,6.0,92,0.00,,,0.00,VWS V14.01,2013-04-03 10:35:00,
2013-04-03 06:40:00,64.6,62.2,29.99,SE,126,0.0,6.0,92,0.00,,,0.00,VWS V14.01,2013-04-03 10:40:00,
2013-04-03 06:45:00,64.8,62.4,29.99,SE,126,0.0,4.0,92,0.00,,,0.00,VWS V14.01,2013-04-03 10:45:00,
2013-04-03 06:50:00,64.9,62.5,29.99,SE,125,5.0,7.0,92,0.00,,,0.00,VWS V14.01,2013-04-03 10:50:00,
2013-04-03 06:55:00,64.9,62.5,29.99,SE,124,5.0,5.0,92,0.00,,,0.00,VWS V14.01,2013-04-03 10:55:00,
2013-04-03 07:00:00,65.1,62.7,29.99,SE,129,1.0,7.0,92,0.00,,,0.00,VWS V14.01,2013-04-03 11:00:00,
2013-04-03 07:05:00,65.2,62.8,29.99,SE,130,1.0,7.0,92,0.00,,,0.00,VWS V14.01,2013-04-03 11:05:00,
2013-04-03 07:10:00,65.4,63.0,29.99,SE,129,2.0,8.0,92,0.00,,,0.00,VWS V14.01,2013-04-03 11:10:00,
2013-04-03 07:15:00,65.4,62.7,29.99,ESE,121,2.0,5.0,91,0.00,,,0.00,VWS V14.01,2013-04-03 11:15:00,
2013-04-03 07:20:00,65.4,62.7,29.99,ESE,119,5.0,7.0,91,0.00,,,0.00,VWS V14.01,2013-04-03 11:20:00,
2013-04-03 07:25:00,65.4,63.0,30.00,ESE,119,4.0,7.0,92,0.00,,,0.00,VWS V14.01,2013-04-03 11:25:00,
2013-04-03 07:30:00,65.5,63.1,30.00,ESE,119,4.0,7.0,92,0.00,,,0.00,VWS V14.01,2013-04-03 11:30:00,
2013-04-03 07:35:00,65.7,63.3,30.00,ESE,119,4.0,7.0,92,0.00,,,0.00,VWS V14.01,2013-04-03 11:35:00,
2013-04-03 07:40:00,65.9,63.5,30.00,ESE,113,4.0,9.0,92,0.00,,,0.00,VWS V14.01,2013-04-03 11:40:00,
2013-04-03 07:45:00,66.2,63.5,30.00,ESE,121,2.0,8.0,91,0.00,,,0.00,VWS V14.01,2013-04-03 11:45:00,
2013-04-03 07:50:00,66.6,63.9,30.00,SE,136,2.0,8.0,91,0.00,,,0.00,VWS V14.01,2013-04-03 11:50:00,
2013-04-03 07:55:00,67.0,64.0,30.00,SE,136,2.0,7.0,90,0.00,,,0.00,VWS V14.01,2013-04-03 11:55:00,
2013-04-03 08:00:00,67.6,64.6,30.00,SE,144,6.0,9.0,90,0.00,,,0.00,VWS V14.01,2013-04-03 12:00:00,
2013-04-03 08:05:00,68.0,64.6,30.00,SE,132,5.0,11.0,89,0.00,,,0.00,VWS V14.01,2013-04-03 12:05:00,
2013-04-03 08:10:00,68.3,64.9,30.00,SE,144,5.0,11.0,89,0.00,,,0.00,VWS V14.01,2013-04-03 12:10:00,
2013-04-03 08:15:00,68.8,65.1,30.01,SSE,147,5.0,8.0,88,0.00,,,0.00,VWS V14.01,2013-04-03 12:15:00,
2013-04-03 08:20:00,69.2,65.2,30.00,SE,135,5.0,12.0,87,0.00,,,0.00,VWS V14.01,2013-04-03 12:20:00,
2013-04-03 08:25:00,69.5,65.5,30.00,ESE,107,7.0,12.0,87,0.00,,,0.00,VWS V14.01,2013-04-03 12:25:00,
2013-04-03 08:30:00,69.9,65.5,30.00,ESE,108,7.0,12.0,86,0.00,,,0.00,VWS V14.01,2013-04-03 12:30:00,
2013-04-03 08:35:00,70.2,65.8,30.00,SE,138,9.0,14.0,86,0.00,,,0.00,VWS V14.01,2013-04-03 12:35:00,
2013-04-03 08:40:00,70.7,66.3,30.00,SE,135,8.0,14.0,86,0.00,,,0.00,VWS V14.01,2013-04-03 12:40:00,
2013-04-03 08:45:00,71.2,66.1,30.00,SE,130,5.0,7.0,84,0.00,,,0.00,VWS V14.01,2013-04-03 12:45:00,
2013-04-03 08:50:00,71.4,66.3,30.00,ESE,116,12.0,14.0,84,0.00,,,0.00,VWS V14.01,2013-04-03 12:50:00,
2013-04-03 08:55:00,71.5,66.4,30.00,SE,134,6.0,12.0,84,0.00,,,0.00,VWS V14.01,2013-04-03 12:55:00,
2013-04-03 09:00:00,71.8,66.4,30.00,SSE,155,9.0,14.0,83,0.00,,,0.00,VWS V14.01,2013-04-03 13:00:00,
2013-04-03 09:05:00,72.2,66.8,30.01,SE,134,7.0,8.0,83,0.00,,,0.00,VWS V14.01,2013-04-03 13:05:00,
2013-04-03 09:10:00,72.5,66.7,30.00,SSE,150,8.0,15.0,82,0.00,,,0.00,VWS V14.01,2013-04-03 13:10:00,
2013-04-03 09:15:00,72.7,66.5,30.00,SSE,149,14.0,22.0,81,0.00,,,0.00,VWS V14.01,2013-04-03 13:15:00,
2013-04-03 09:20:00,72.9,67.1,30.01,SSE,158,11.0,22.0,82,0.00,,,0.00,VWS V14.01,2013-04-03 13:20:00,
2013-04-03 09:25:00,73.0,66.8,30.01,SE,143,12.0,13.0,81,0.00,,,0.00,VWS V14.01,2013-04-03 13:25:00,
2013-04-03 09:30:00,73.4,67.2,30.01,SSE,166,8.0,13.0,81,0.00,,,0.00,VWS V14.01,2013-04-03 13:30:00,
2013-04-03 09:35:00,73.5,67.3,30.01,South,190,5.0,8.0,81,0.00,,,0.00,VWS V14.01,2013-04-03 13:35:00,
2013-04-03 09:40:00,73.8,67.2,30.01,SE,143,10.0,15.0,80,0.00,,,0.00,VWS V14.01,2013-04-03 13:40:00,
2013-04-03 09:45:00,74.2,67.3,30.02,ESE,117,12.0,18.0,79,0.00,,,0.00,VWS V14.01,2013-04-03 13:45:00,
2013-04-03 09:50:00,74.2,67.3,30.02,ESE,115,8.0,18.0,79,0.00,,,0.00,VWS V14.01,2013-04-03 13:50:00,
2013-04-03 09:55:00,74.7,67.4,30.02,ESE,121,5.0,12.0,78,0.00,,,0.00,VWS V14.01,2013-04-03 13:55:00,
2013-04-03 10:00:00,75.3,67.6,30.02,SE,132,17.0,17.0,77,0.00,,,0.00,VWS V14.01,2013-04-03 14:00:00,
2013-04-03 10:05:00,75.1,67.0,30.02,SE,136,6.0,13.0,76,0.00,,,0.00,VWS V14.01,2013-04-03 14:05:00,
2013-04-03 10:10:00,75.2,67.5,30.01,SSE,154,8.0,15.0,77,0.00,,,0.00,VWS V14.01,2013-04-03 14:10:00,
2013-04-03 10:15:00,76.0,67.1,30.01,SE,146,7.0,12.0,74,0.00,,,0.00,VWS V14.01,2013-04-03 14:15:00,
2013-04-03 10:20:00,75.6,67.1,30.01,South,171,14.0,16.0,75,0.00,,,0.00,VWS V14.01,2013-04-03 14:20:00,
2013-04-03 10:25:00,75.9,67.0,30.01,SE,143,5.0,11.0,74,0.00,,,0.00,VWS V14.01,2013-04-03 14:25:00,
2013-04-03 10:30:00,76.3,67.0,30.01,SSE,150,6.0,13.0,73,0.00,,,0.00,VWS V14.01,2013-04-03 14:30:00,
2013-04-03 10:35:00,75.6,66.7,30.01,SE,135,10.0,11.0,74,0.00,,,0.00,VWS V14.01,2013-04-03 14:35:00,
2013-04-03 10:40:00,75.7,66.8,30.01,SSE,159,6.0,12.0,74,0.00,,,0.00,VWS V14.01,2013-04-03 14:40:00,
2013-04-03 10:45:00,76.5,67.2,30.00,SE,138,11.0,15.0,73,0.00,,,0.00,VWS V14.01,2013-04-03 14:45:00,
2013-04-03 10:50:00,77.8,67.7,30.01,SSE,154,11.0,17.0,71,0.00,,,0.00,VWS V14.01,2013-04-03 14:50:00,
2013-04-03 10:55:00,77.3,66.3,30.01,SSE,147,13.0,13.0,69,0.00,,,0.00,VWS V14.01,2013-04-03 14:55:00,
2013-04-03 11:00:00,77.6,67.1,30.01,South,169,12.0,14.0,70,0.00,,,0.00,VWS V14.01,2013-04-03 15:00:00,
2013-04-03 11:05:00,78.7,67.7,30.01,SE,138,8.0,14.0,69,0.00,,,0.00,VWS V14.01,2013-04-03 15:05:00,
2013-04-03 11:10:00,78.7,66.8,30.01,ESE,107,11.0,17.0,67,0.00,,,0.00,VWS V14.01,2013-04-03 15:10:00,
2013-04-03 11:15:00,79.0,67.1,30.01,SSE,164,4.0,11.0,67,0.00,,,0.00,VWS V14.01,2013-04-03 15:15:00,
2013-04-03 11:20:00,78.8,67.4,30.01,South,169,13.0,13.0,68,0.00,,,0.00,VWS V14.01,2013-04-03 15:20:00,
2013-04-03 11:25:00,79.9,67.5,30.01,SE,130,16.0,19.0,66,0.00,,,0.00,VWS V14.01,2013-04-03 15:25:00,
2013-04-03 11:30:00,80.1,66.8,30.01,East,100,11.0,19.0,64,0.00,,,0.00,VWS V14.01,2013-04-03 15:30:00,
2013-04-03 11:35:00,79.7,65.1,30.00,SSE,150,13.0,18.0,61,0.00,,,0.00,VWS V14.01,2013-04-03 15:35:00,
2013-04-03 11:40:00,79.5,65.8,30.00,SSE,152,9.0,18.0,63,0.00,,,0.00,VWS V14.01,2013-04-03 15:40:00,
2013-04-03 11:45:00,79.4,65.3,30.00,SSE,149,6.0,12.0,62,0.00,,,0.00,VWS V14.01,2013-04-03 15:45:00,
2013-04-03 11:50:00,80.1,66.4,29.99,SSE,150,4.0,18.0,63,0.00,,,0.00,VWS V14.01,2013-04-03 15:50:00,
2013-04-03 11:55:00,80.0,65.4,29.99,SE,137,5.0,13.0,61,0.00,,,0.00,VWS V14.01,2013-04-03 15:55:00,
2013-04-03 12:00:00,80.2,66.0,29.99,ENE,74,10.0,19.0,62,0.00,,,0.00,VWS V14.01,2013-04-03 16:00:00,
2013-04-03 12:05:00,81.4,65.7,29.98,SSE,160,10.0,15.0,59,0.00,,,0.00,VWS V14.01,2013-04-03 16:05:00,
2013-04-03 12:10:00,81.3,66.6,29.98,SE,142,8.0,17.0,61,0.00,,,0.00,VWS V14.01,2013-04-03 16:10:00,
2013-04-03 12:15:00,81.2,66.0,29.98,ESE,118,11.0,17.0,60,0.00,,,0.00,VWS V14.01,2013-04-03 16:15:00,
2013-04-03 12:20:00,80.5,65.8,29.98,ESE,109,9.0,17.0,61,0.00,,,0.00,VWS V14.01,2013-04-03 16:20:00,
2013-04-03 12:25:00,81.1,65.4,29.98,SE,139,9.0,13.0,59,0.00,,,0.00,VWS V14.01,2013-04-03 16:25:00,
2013-04-03 12:30:00,81.3,65.1,29.98,SE,131,7.0,14.0,58,0.00,,,0.00,VWS V14.01,2013-04-03 16:30:00,
2013-04-03 12:35:00,81.6,65.9,29.98,SE,143,11.0,15.0,59,0.00,,,0.00,VWS V14.01,2013-04-03 16:35:00,
2013-04-03 12:40:00,81.8,65.6,29.98,ESE,122,12.0,15.0,58,0.00,,,0.00,VWS V14.01,2013-04-03 16:40:00,
2013-04-03 12:45:00,81.4,64.7,29.98,ESE,119,9.0,14.0,57,0.00,,,0.00,VWS V14.01,2013-04-03 16:45:00,
2013-04-03 12:50:00,81.7,66.0,29.98,SSE,150,9.0,19.0,59,0.00,,,0.00,VWS V14.01,2013-04-03 16:50:00,
2013-04-03 12:55:00,82.2,65.5,29.98,SE,140,11.0,19.0,57,0.00,,,0.00,VWS V14.01,2013-04-03 16:55:00,
2013-04-03 13:00:00,82.1,64.9,29.98,SSE,161,11.0,19.0,56,0.00,,,0.00,VWS V14.01,2013-04-03 17:00:00,
2013-04-03 13:05:00,82.0,65.8,29.97,SE,139,8.0,11.0,58,0.00,,,0.00,VWS V14.01,2013-04-03 17:05:00,
2013-04-03 13:10:00,82.2,65.5,29.97,SSE,163,10.0,13.0,57,0.00,,,0.00,VWS V14.01,2013-04-03 17:10:00,
2013-04-03 13:15:00,82.8,66.5,29.97,SE,138,7.0,8.0,58,0.00,,,0.00,VWS V14.01,2013-04-03 17:15:00,
2013-04-03 13:20:00,83.1,65.3,29.97,East,98,4.0,12.0,55,0.00,,,0.00,VWS V14.01,2013-04-03 17:20:00,
2013-04-03 13:25:00,83.6,64.7,29.96,SE,135,11.0,19.0,53,0.00,,,0.00,VWS V14.01,2013-04-03 17:25:00,
2013-04-03 13:30:00,83.8,64.9,29.96,SE,138,7.0,19.0,53,0.00,,,0.00,VWS V14.01,2013-04-03 17:30:00,
2013-04-03 13:35:00,84.3,65.3,29.96,South,176,7.0,13.0,53,0.00,,,0.00,VWS V14.01,2013-04-03 17:35:00,
2013-04-03 13:40:00,83.2,62.7,29.96,SE,142,7.0,15.0,50,0.00,,,0.00,VWS V14.01,2013-04-03 17:40:00,
2013-04-03 13:45:00,83.3,63.9,29.96,East,99,2.0,13.0,52,0.00,,,0.00,VWS V14.01,2013-04-03 17:45:00,
2013-04-03 13:50:00,82.9,64.0,29.96,SSE,168,4.0,13.0,53,0.00,,,0.00,VWS V14.01,2013-04-03 17:50:00,
2013-04-03 13:55:00,82.7,64.4,29.96,ESE,118,8.0,9.0,54,0.00,,,0.00,VWS V14.01,2013-04-03 17:55:00,
2013-04-03 14:00:00,82.5,63.7,29.96,East,99,2.0,11.0,53,0.00,,,0.00,VWS V14.01,2013-04-03 18:00:00,
2013-04-03 14:05:00,83.1,64.2,29.96,East,93,9.0,12.0,53,0.00,,,0.00,VWS V14.01,2013-04-03 18:05:00,
2013-04-03 14:10:00,82.9,64.6,29.96,SSE,157,5.0,12.0,54,0.00,,,0.00,VWS V14.01,2013-04-03 18:10:00,
2013-04-03 14:16:00,83.2,64.8,29.96,SE,132,2.0,8.0,54,0.00,,,0.00,VWS V14.01,2013-04-03 18:16:00,
2013-04-03 14:21:00,83.6,64.1,29.95,South,189,5.0,15.0,52,0.00,,,0.00,VWS V14.01,2013-04-03 18:21:00,
2013-04-03 14:26:00,84.3,63.7,29.95,SE,132,8.0,12.0,50,0.00,,,0.00,VWS V14.01,2013-04-03 18:26:00,
2013-04-03 14:31:00,84.3,64.8,29.95,SSE,156,6.0,13.0,52,0.00,,,0.00,VWS V14.01,2013-04-03 18:31:00,
2013-04-03 14:36:00,83.9,63.3,29.96,South,172,5.0,9.0,50,0.00,,,0.00,VWS V14.01,2013-04-03 18:36:00,
2013-04-03 14:41:00,83.7,63.1,29.96,SSE,165,6.0,9.0,50,0.00,,,0.00,VWS V14.01,2013-04-03 18:41:00,
2013-04-03 14:46:00,83.6,63.6,29.96,SE,141,7.0,8.0,51,0.00,,,0.00,VWS V14.01,2013-04-03 18:46:00,
2013-04-03 14:51:00,84.1,62.9,29.96,SSE,162,7.0,9.0,49,0.00,,,0.00,VWS V14.01,2013-04-03 18:51:00,
2013-04-03 14:57:00,84.9,64.8,29.96,SSW,193,5.0,7.0,51,0.00,,,0.00,VWS V14.01,2013-04-03 18:57:00,
2013-04-03 15:02:00,85.2,62.7,29.96,South,190,5.0,11.0,47,0.00,,,0.00,VWS V14.01,2013-04-03 19:02:00,
2013-04-03 15:07:00,85.7,63.2,29.95,ESE,112,6.0,12.0,47,0.00,,,0.00,VWS V14.01,2013-04-03 19:07:00,
2013-04-03 15:12:00,85.7,63.8,29.95,South,174,5.0,12.0,48,0.00,,,0.00,VWS V14.01,2013-04-03 19:12:00,
2013-04-03 15:17:00,85.2,64.5,29.95,SSE,161,5.0,14.0,50,0.00,,,0.00,VWS V14.01,2013-04-03 19:17:00,
2013-04-03 15:22:00,84.6,62.8,29.95,SSW,201,2.0,14.0,48,0.00,,,0.00,VWS V14.01,2013-04-03 19:22:00,
2013-04-03 15:27:00,84.5,61.5,29.94,SSE,164,8.0,15.0,46,0.00,,,0.00,VWS V14.01,2013-04-03 19:27:00,
2013-04-03 15:32:00,84.3,63.1,29.94,South,180,3.0,15.0,49,0.00,,,0.00,VWS V14.01,2013-04-03 19:32:00,
2013-04-03 15:37:00,84.6,62.8,29.94,SE,145,6.0,8.0,48,0.00,,,0.00,VWS V14.01,2013-04-03 19:37:00,
2013-04-03 15:42:00,84.7,61.0,29.93,SE,128,5.0,9.0,45,0.00,,,0.00,VWS V14.01,2013-04-03 19:42:00,
2013-04-03 15:47:00,85.2,62.7,29.93,SSE,153,2.0,9.0,47,0.00,,,0.00,VWS V14.01,2013-04-03 19:47:00,
2013-04-03 15:52:00,85.3,62.2,29.92,SE,137,5.0,10.0,46,0.00,,,0.00,VWS V14.01,2013-04-03 19:52:00,
2013-04-03 15:57:00,85.0,63.1,29.92,SSW,194,1.0,9.0,48,0.00,,,0.00,VWS V14.01,2013-04-03 19:57:00,
2013-04-03 16:02:00,84.9,59.9,29.92,ESE,114,8.0,11.0,43,0.00,,,0.00,VWS V14.01,2013-04-03 20:02:00,
2013-04-03 16:07:00,85.2,62.1,29.92,SSE,162,6.0,8.0,46,0.00,,,0.00,VWS V14.01,2013-04-03 20:07:00,
2013-04-03 16:12:00,85.0,60.7,29.92,South,179,7.0,11.0,44,0.00,,,0.00,VWS V14.01,2013-04-03 20:12:00,
2013-04-03 16:17:00,84.8,61.7,29.92,SSE,165,7.0,7.0,46,0.00,,,0.00,VWS V14.01,2013-04-03 20:17:00,
2013-04-03 16:22:00,84.6,59.7,29.92,SE,136,2.0,11.0,43,0.00,,,0.00,VWS V14.01,2013-04-03 20:22:00,
2013-04-03 16:27:00,84.5,60.8,29.92,SE,140,8.0,9.0,45,0.00,,,0.00,VWS V14.01,2013-04-03 20:27:00,
2013-04-03 16:32:00,84.4,60.8,29.92,SE,142,8.0,11.0,45,0.00,,,0.00,VWS V14.01,2013-04-03 20:32:00,
2013-04-03 16:37:00,84.4,62.6,29.92,SSE,157,6.0,8.0,48,0.00,,,0.00,VWS V14.01,2013-04-03 20:37:00,
2013-04-03 16:42:00,84.1,61.1,29.92,SSE,153,7.0,10.0,46,0.00,,,0.00,VWS V14.01,2013-04-03 20:42:00,
2013-04-03 16:47:00,83.9,61.5,29.92,South,176,2.0,8.0,47,0.00,,,0.00,VWS V14.01,2013-04-03 20:47:00,
2013-04-03 16:52:00,83.8,61.4,29.91,SSE,155,8.0,12.0,47,0.00,,,0.00,VWS V14.01,2013-04-03 20:52:00,
2013-04-03 16:57:00,83.9,61.5,29.92,SE,145,5.0,7.0,47,0.00,,,0.00,VWS V14.01,2013-04-03 20:57:00,
2013-04-03 17:02:00,83.9,61.5,29.91,SSE,153,5.0,9.0,47,0.00,,,0.00,VWS V14.01,2013-04-03 21:02:00,
2013-04-03 17:07:00,83.8,60.8,29.91,SSE,148,6.0,10.0,46,0.00,,,0.00,VWS V14.01,2013-04-03 21:07:00,
2013-04-03 17:12:00,83.6,61.8,29.91,South,182,1.0,10.0,48,0.00,,,0.00,VWS V14.01,2013-04-03 21:12:00,
2013-04-03 17:17:00,83.4,61.1,29.91,SSE,150,4.0,8.0,47,0.00,,,0.00,VWS V14.01,2013-04-03 21:17:00,
2013-04-03 17:22:00,83.3,61.0,29.91,SE,142,1.0,10.0,47,0.00,,,0.00,VWS V14.01,2013-04-03 21:22:00,
2013-04-03 17:27:00,83.0,61.3,29.91,SE,141,6.0,11.0,48,0.00,,,0.00,VWS V14.01,2013-04-03 21:27:00,
2013-04-03 17:32:00,83.0,61.9,29.91,SE,146,6.0,11.0,49,0.00,,,0.00,VWS V14.01,2013-04-03 21:32:00,
2013-04-03 17:37:00,82.9,61.2,29.91,ESE,102,4.0,9.0,48,0.00,,,0.00,VWS V14.01,2013-04-03 21:37:00,
2013-04-03 17:42:00,82.7,61.6,29.91,SSE,157,6.0,9.0,49,0.00,,,0.00,VWS V14.01,2013-04-03 21:42:00,
2013-04-03 17:47:00,82.6,60.9,29.91,SSE,151,6.0,10.0,48,0.00,,,0.00,VWS V14.01,2013-04-03 21:47:00,
2013-04-03 17:52:00,82.6,61.5,29.91,SE,146,6.0,10.0,49,0.00,,,0.00,VWS V14.01,2013-04-03 21:52:00,
2013-04-03 17:57:00,82.5,60.8,29.91,SSE,167,6.0,9.0,48,0.00,,,0.00,VWS V14.01,2013-04-03 21:57:00,
2013-04-03 18:02:00,82.4,61.3,29.91,SSE,155,2.0,9.0,49,0.00,,,0.00,VWS V14.01,2013-04-03 22:02:00,
2013-04-03 18:07:00,82.2,61.2,29.92,SSE,161,4.0,7.0,49,0.00,,,0.00,VWS V14.01,2013-04-03 22:07:00,
2013-04-03 18:12:00,82.1,61.6,29.92,SSE,163,0.0,7.0,50,0.00,,,0.00,VWS V14.01,2013-04-03 22:12:00,
2013-04-03 18:17:00,81.9,61.5,29.92,SSE,163,0.0,4.0,50,0.00,,,0.00,VWS V14.01,2013-04-03 22:17:00,
2013-04-03 18:22:00,81.7,62.4,29.92,SSE,163,0.0,4.0,52,0.00,,,0.00,VWS V14.01,2013-04-03 22:22:00,
2013-04-03 18:27:00,81.5,62.2,29.92,SSE,163,0.0,0.0,52,0.00,,,0.00,VWS V14.01,2013-04-03 22:27:00,
2013-04-03 18:32:00,81.2,63.0,29.92,SSE,163,2.0,2.0,54,0.00,,,0.00,VWS V14.01,2013-04-03 22:32:00,
2013-04-03 18:37:00,80.3,63.7,29.92,NNW,344,2.0,8.0,57,0.00,,,0.00,VWS V14.01,2013-04-03 22:37:00,
2013-04-03 18:42:00,77.8,64.2,29.92,WSW,252,7.0,9.0,63,0.00,,,0.00,VWS V14.01,2013-04-03 22:42:00,
2013-04-03 18:47:00,75.7,64.4,29.93,NNW,340,8.0,15.0,68,0.00,,,0.00,VWS V14.01,2013-04-03 22:47:00,
2013-04-03 18:52:00,75.0,64.2,29.93,NNW,346,6.0,15.0,69,0.00,,,0.00,VWS V14.01,2013-04-03 22:52:00,
2013-04-03 18:57:00,74.6,64.6,29.93,ENE,64,6.0,7.0,71,0.00,,,0.00,VWS V14.01,2013-04-03 22:57:00,
2013-04-03 19:02:00,74.4,64.0,29.92,North,5,2.0,8.0,70,0.00,,,0.00,VWS V14.01,2013-04-03 23:02:00,
2013-04-03 19:07:00,74.6,64.2,29.92,WNW,290,4.0,7.0,70,0.00,,,0.00,VWS V14.01,2013-04-03 23:07:00,
2013-04-03 19:12:00,75.5,64.2,29.93,NE,50,4.0,7.0,68,0.00,,,0.00,VWS V14.01,2013-04-03 23:12:00,
2013-04-03 19:17:00,75.8,64.5,29.93,ENE,73,3.0,6.0,68,0.00,,,0.00,VWS V14.01,2013-04-03 23:17:00,
2013-04-03 19:22:00,75.9,64.6,29.93,ENE,78,4.0,7.0,68,0.00,,,0.00,VWS V14.01,2013-04-03 23:22:00,
2013-04-03 19:27:00,75.8,64.5,29.93,ENE,78,1.0,4.0,68,0.00,,,0.00,VWS V14.01,2013-04-03 23:27:00,
2013-04-03 19:32:00,75.5,64.6,29.94,ENE,78,3.0,5.0,69,0.00,,,0.00,VWS V14.01,2013-04-03 23:32:00,
2013-04-03 19:37:00,74.9,64.9,29.94,ENE,78,1.0,4.0,71,0.00,,,0.00,VWS V14.01,2013-04-03 23:37:00,
2013-04-03 19:42:00,74.8,64.8,29.94,ENE,78,0.0,4.0,71,0.00,,,0.00,VWS V14.01,2013-04-03 23:42:00,
2013-04-03 19:47:00,74.6,65.0,29.94,ENE,78,0.0,0.0,72,0.00,,,0.00,VWS V14.01,2013-04-03 23:47:00,
2013-04-03 19:52:00,74.4,64.8,29.94,ENE,78,0.0,2.0,72,0.00,,,0.00,VWS V14.01,2013-04-03 23:52:00,
2013-04-03 19:57:00,74.2,65.0,29.94,ENE,78,0.0,0.0,73,0.00,,,0.00,VWS V14.01,2013-04-03 23:57:00,
2013-04-03 20:02:00,74.0,64.8,29.94,ENE,78,0.0,0.0,73,0.00,,,0.00,VWS V14.01,2013-04-04 00:02:00,
2013-04-03 20:07:00,73.8,65.0,29.95,ENE,78,0.0,0.0,74,0.00,,,0.00,VWS V14.01,2013-04-04 00:07:00,
2013-04-03 20:12:00,73.7,64.9,29.96,ENE,78,0.0,0.0,74,0.00,,,0.00,VWS V14.01,2013-04-04 00:12:00,
2013-04-03 20:17:00,73.6,65.2,29.96,ENE,78,0.0,2.0,75,0.00,,,0.00,VWS V14.01,2013-04-04 00:17:00,
2013-04-03 20:22:00,73.7,65.7,29.96,ENE,78,2.0,4.0,76,0.00,,,0.00,VWS V14.01,2013-04-04 00:22:00,
2013-04-03 20:27:00,73.8,65.4,29.97,ENE,78,0.0,4.0,75,0.00,,,0.00,VWS V14.01,2013-04-04 00:27:00,
2013-04-03 20:32:00,73.5,66.2,29.97,NNW,338,4.0,8.0,78,0.00,,,0.00,VWS V14.01,2013-04-04 00:32:00,
2013-04-03 20:37:00,72.5,66.0,29.97,North,10,6.0,8.0,80,0.00,,,0.00,VWS V14.01,2013-04-04 00:37:00,
2013-04-03 20:42:00,71.7,65.6,29.97,NNE,22,2.0,8.0,81,0.00,,,0.00,VWS V14.01,2013-04-04 00:42:00,
2013-04-03 20:47:00,71.2,65.8,29.96,NNE,19,0.0,4.0,83,0.00,,,0.00,VWS V14.01,2013-04-04 00:47:00,
2013-04-03 20:52:00,71.0,65.6,29.96,NNE,22,0.0,4.0,83,0.00,,,0.00,VWS V14.01,2013-04-04 00:52:00,
2013-04-03 20:57:00,70.9,65.8,29.97,NNE,22,1.0,2.0,84,0.00,,,0.00,VWS V14.01,2013-04-04 00:57:00,
2013-04-03 21:02:00,70.8,65.7,29.97,NNE,22,0.0,3.0,84,0.00,,,0.00,VWS V14.01,2013-04-04 01:02:00,
2013-04-03 21:07:00,70.8,65.7,29.98,NNE,22,2.0,4.0,84,0.00,,,0.00,VWS V14.01,2013-04-04 01:07:00,
2013-04-03 21:12:00,70.8,66.1,29.98,NNE,22,1.0,4.0,85,0.00,,,0.00,VWS V14.01,2013-04-04 01:12:00,
2013-04-03 21:17:00,70.6,65.9,29.97,NNE,22,0.0,2.0,85,0.00,,,0.00,VWS V14.01,2013-04-04 01:17:00,
2013-04-03 21:22:00,70.7,66.3,29.97,SE,132,2.0,9.0,86,0.00,,,0.00,VWS V14.01,2013-04-04 01:22:00,
2013-04-03 21:27:00,71.2,67.1,29.97,ESE,105,5.0,9.0,87,0.00,,,0.00,VWS V14.01,2013-04-04 01:27:00,
2013-04-03 21:32:00,71.4,67.3,29.97,SE,134,4.0,9.0,87,0.00,,,0.00,VWS V14.01,2013-04-04 01:32:00,
2013-04-03 21:37:00,71.4,67.3,29.97,ESE,121,5.0,7.0,87,0.00,,,0.00,VWS V14.01,2013-04-04 01:37:00,
2013-04-03 21:42:00,71.5,67.4,29.97,SE,144,5.0,12.0,87,0.00,,,0.00,VWS V14.01,2013-04-04 01:42:00,
2013-04-03 21:47:00,71.5,67.4,29.98,East,82,2.0,8.0,87,0.00,,,0.00,VWS V14.01,2013-04-04 01:47:00,
2013-04-03 21:52:00,71.4,67.3,29.99,SE,124,2.0,8.0,87,0.00,,,0.00,VWS V14.01,2013-04-04 01:52:00,
2013-04-03 21:57:00,71.5,67.4,30.00,SE,141,2.0,6.0,87,0.00,,,0.00,VWS V14.01,2013-04-04 01:57:00,
2013-04-03 22:02:00,71.4,67.3,30.00,SSE,149,5.0,8.0,87,0.00,,,0.00,VWS V14.01,2013-04-04 02:02:00,
2013-04-03 22:07:00,71.4,67.7,30.00,SSE,149,1.0,4.0,88,0.00,,,0.00,VWS V14.01,2013-04-04 02:07:00,
2013-04-03 22:12:00,71.3,67.9,30.00,SSE,149,0.0,4.0,89,0.00,,,0.00,VWS V14.01,2013-04-04 02:12:00,
2013-04-03 22:17:00,71.2,67.8,30.00,SSE,149,0.0,0.0,89,0.00,,,0.00,VWS V14.01,2013-04-04 02:17:00,
2013-04-03 22:22:00,71.0,67.9,30.01,SSE,149,0.0,0.0,90,0.00,,,0.00,VWS V14.01,2013-04-04 02:22:00,
2013-04-03 22:27:00,70.8,67.7,30.00,SSE,149,0.0,1.0,90,0.01,,,0.01,VWS V14.01,2013-04-04 02:27:00,
2013-04-03 22:32:00,70.7,67.9,30.01,SSE,149,2.0,4.0,91,0.01,,,0.01,VWS V14.01,2013-04-04 02:32:00,
2013-04-03 22:37:00,70.5,68.1,30.02,South,178,1.0,5.0,92,0.01,,,0.01,VWS V14.01,2013-04-04 02:37:00,
2013-04-03 22:42:00,70.3,67.6,30.02,WSW,258,3.0,6.0,91,0.01,,,0.01,VWS V14.01,2013-04-04 02:42:00,
2013-04-03 22:47:00,70.1,67.7,30.02,WSW,258,3.0,3.0,92,0.01,,,0.01,VWS V14.01,2013-04-04 02:47:00,
2013-04-03 22:52:00,69.9,67.5,30.01,WSW,258,3.0,4.0,92,0.01,,,0.01,VWS V14.01,2013-04-04 02:52:00,
2013-04-03 22:57:00,69.6,67.2,30.01,West,259,3.0,5.0,92,0.01,,,0.01,VWS V14.01,2013-04-04 02:57:00,
2013-04-03 23:02:00,69.4,67.0,30.01,West,259,0.0,5.0,92,0.01,,,0.01,VWS V14.01,2013-04-04 03:02:00,
2013-04-03 23:07:00,69.3,66.9,30.02,West,259,2.0,2.0,92,0.01,,,0.01,VWS V14.01,2013-04-04 03:07:00,
2013-04-03 23:12:00,69.2,67.1,30.01,West,259,4.0,4.0,93,0.01,,,0.01,VWS V14.01,2013-04-04 03:12:00,
2013-04-03 23:17:00,69.1,67.0,30.01,West,259,0.0,2.0,93,0.02,,,0.02,VWS V14.01,2013-04-04 03:17:00,
2013-04-03 23:22:00,69.0,66.9,30.01,West,259,0.0,2.0,93,0.02,,,0.02,VWS V14.01,2013-04-04 03:22:00,
2013-04-03 23:27:00,69.0,66.9,30.01,West,259,0.0,0.0,93,0.01,,,0.02,VWS V14.01,2013-04-04 03:27:00,
2013-04-03 23:32:00,68.9,67.1,30.01,West,259,0.0,0.0,94,0.01,,,0.02,VWS V14.01,2013-04-04 03:32:00,
2013-04-03 23:37:00,68.9,67.1,30.01,West,259,3.0,4.0,94,0.01,,,0.02,VWS V14.01,2013-04-04 03:37:00,
2013-04-03 23:42:00,68.8,67.0,30.01,West,259,0.0,4.0,94,0.01,,,0.02,VWS V14.01,2013-04-04 03:42:00,
2013-04-03 23:47:00,68.8,67.0,30.00,West,259,1.0,3.0,94,0.02,,,0.03,VWS V14.01,2013-04-04 03:47:00,
2013-04-03 23:52:00,68.7,67.2,29.99,South,172,4.0,6.0,95,0.02,,,0.03,VWS V14.01,2013-04-04 03:52:00,
2013-04-03 23:57:00,68.8,67.3,29.97,SE,142,8.0,11.0,95,0.02,,,0.03,VWS V14.01,2013-04-04 03:57:00,